QPF
0.00 0.00 0.00 0.00 0.00 0.00 0.00 0.00 0.00 0.00 0.00 0.00 0.00 0.00 0.00 0.00 0.00 0.00 0.00 0.00 0.00 0.00 0.00 0.00 0.00 0.00 0.00 0.00 0.00 0.00 0.00 0.00 0.00 0.00 0.00 0.00 0.00 0.00 0.00 0.00 0.00 0.00 0.00
0.00 0.00 0.00 0.00 0.00 0.00 0.00 0.00 0.00 0.00 0.00 0.00 0.00 0.00 0.00 0.00 0.00 0.00 0.00 0.00 0.00 0.00 0.00 0.00 0.00 0.00 0.00 0.00 0.00 0.00 0.00 0.00 0.00 0.00 0.00 0.00 0.00 0.00 0.00 0.00 0.00 0.00 0.00
0.00 0.00 0.00 0.00 0.00 0.00 0.00 0.00 0.00 0.00 0.00 0.00 0.00 0.00 0.00 0.00 0.00 0.00 0.00 0.00 0.00 0.00 0.00 0.00 0.00 0.00 0.00 0.00 0.00 0.00 0.00 0.00 0.00 0.00 0.00 0.00 0.00 0.00 0.00 0.00 0.00 0.00 0.00
0.00 0.00 0.00 0.00 0.00 0.00 0.00 0.00 0.00 0.00 0.00 0.00 0.00 0.00 0.00 0.00 0.00 0.00 0.00 0.00 0.00 0.00 0.00 0.00 0.00 0.00 0.00 0.00 0.00 0.00 0.00 0.00 0.00 0.00 0.00 0.00 0.00 0.00 0.00 0.00 0.00 0.00 0.00
0.00 0.00 0.00 0.00 0.00 0.00 0.00 0.00 0.00 0.00 0.00 0.00 0.00 0.00 0.00 0.00 0.00 0.00 0.00 0.00 0.00 0.00 0.00 0.00 0.00 0.00 0.00 0.00 0.00 0.00 0.00 0.00 0.00 0.00 0.00 0.00 0.00 0.00 0.00 0.00 0.00 0.00 0.00
0.00 0.00 0.00 0.00 0.00 0.00 0.00 0.00 0.00 0.00 0.00 0.00 0.00 0.00 0.00 0.00 0.00 0.00 0.00 0.00 0.00 0.00 0.00 0.00 0.00 0.00 0.00 0.00 0.00 0.00 0.00 0.00 0.00 0.00 0.00 0.00 0.00 0.00 0.00 0.00 0.00 0.00 0.00
0.00 0.00 0.00 0.00 0.00 0.00 0.00 0.00 0.00 0.00 0.00 0.00 0.00 0.00 0.00 0.00 0.00 0.00 0.00 0.00 0.00 0.00 0.00 0.00 0.00 0.00 0.00 0.00 0.00 0.00 0.00 0.00 0.00 0.00 0.00 0.00 0.00 0.00 0.00 0.00 0.00 0.00 0.00
0.00 0.00 0.00 0.00 0.00 0.00 0.00 0.00 0.00 0.00 0.00 0.00 0.00 0.00 0.00 0.00 0.00 0.00 0.00 0.00 0.00 0.00 0.00 0.00 0.00 0.00 0.00 0.00 0.00 0.00 0.00 0.00 0.00 0.00 0.00 0.00 0.00 0.00 0.00 0.00 0.00 0.00 0.00
0.00 0.00 0.00 0.00 0.00 0.00 0.00 0.00 0.00 0.00 0.00 0.00 0.00 0.00 0.00 0.00 0.00 0.00 0.00 0.00 0.00 0.00 0.00 0.00 0.00 0.00 0.00 0.00 0.00 0.00 0.00 0.00 0.00 0.00 0.00 0.00 0.00 0.00 0.00 0.00 0.00 0.00 0.00
0.00 0.00 0.00 0.00 0.00 0.00 0.00 0.00 0.00 0.00 0.00 0.00 0.00 0.00 0.00 0.00 0.00 0.00 0.00 0.00 0.00 0.00 0.00 0.00 0.00 0.00 0.00 0.00 0.00 0.00 0.00 0.00 0.00 0.00 0.00 0.00 0.00 0.00 0.00 0.00 0.00 0.00 0.00
0.00 0.00 0.00 0.00 0.00 0.00 0.00 0.00 0.00 0.00 0.00 0.00 0.00 0.00 0.00 0.00 0.00 0.00 0.00 0.00 0.00 0.00 0.00 0.00 0.00 0.00 0.00 0.00 0.00 0.00 0.00 0.00 0.00 0.00 0.00 0.00 0.00 0.00 0.00 0.00 0.00 0.00 0.00
0.00 0.00 0.00 0.00 0.00 0.00 0.00 0.00 0.00 0.00 0.00 0.00 0.00 0.00 0.00 0.00 0.00 0.00 0.00 0.00 0.00 0.00 0.00 0.00 0.00 0.00 0.00 0.00 0.00 0.00 0.00 0.00 0.00 0.00 0.00 0.00 0.00 0.00 0.00 0.00 0.00 0.00 0.00
0.00 0.00 0.00 0.00 0.00 0.00 0.00 0.00 0.00 0.00 0.00 0.00 0.00 0.00 0.00 0.00 0.00 0.00 0.00 0.00 0.00 0.00 0.00 0.00 0.00 0.00 0.00 0.00 0.00 0.00 0.00 0.00 0.00 0.00 0.00 0.00 0.00 0.00 0.00 0.00 0.00 0.00 0.00
0.00 0.00 0.00 0.00 0.00 0.00 0.00 0.00 0.00 0.00 0.00 0.00 0.00 0.00 0.00 0.00 0.00 0.00 0.00 0.00 0.00 0.00 0.00 0.00 0.00 0.00 0.00 0.00 0.00 0.00 0.00 0.00 0.00 0.00 0.00 0.00 0.00 0.00 0.00 0.00 0.00 0.00 0.00
0.00 0.00 0.00 0.00 0.00 0.00 0.00 0.00 0.00 0.00 0.00 0.00 0.00 0.00 0.00 0.00 0.00 0.00 0.00 0.00 0.00 0.00 0.00 0.00 0.00 0.00 0.00 0.00 0.00 0.00 0.00 0.00 0.00 0.00 0.00 0.00 0.00 0.00 0.00 0.00 0.00 0.00 0.00
0.00 0.00 0.00 0.00 0.00 0.00 0.00 0.00 0.00 0.00 0.00 0.00 0.00 0.00 0.00 0.00 0.00 0.00 0.00 0.00 0.00 0.00 0.00 0.00 0.00 0.00 0.00 0.00 0.00 0.00 0.00 0.00 0.00 0.00 0.00 0.00 0.00 0.00 0.00 0.00 0.00 0.00 0.00
0.00 0.00 0.00 0.00 0.00 0.00 0.00 0.00 0.00 0.00 0.00 0.00 0.00 0.00 0.00 0.00 0.00 0.00 0.00 0.00 0.00 0.00 0.00 0.00 0.00 0.00 0.00 0.00 0.00 0.00 0.00 0.00 0.00 0.00 0.00 0.00 0.00 0.00 0.00 0.00 0.00 0.00 0.00
0.00 0.00 0.00 0.00 0.00 0.00 0.00 0.00 0.00 0.00 0.00 0.00 0.00 0.00 0.00 0.00 0.00 0.00 0.00 0.00 0.00 0.00 0.00 0.00 0.00 0.00 0.00 0.00 0.00 0.00 0.00 0.00 0.00 0.00 0.00 0.00 0.00 0.00 0.00 0.00 0.00 0.00 0.00
0.00 0.00 0.00 0.00 0.00 0.00 0.00 0.00 0.00 0.00 0.00 0.00 0.00 0.00 0.00 0.00 0.00 0.00 0.00 0.00 0.00 0.00 0.00 0.00 0.00 0.00 0.00 0.00 0.00 0.00 0.00 0.00 0.00 0.00 0.00 0.00 0.00 0.00 0.00 0.00 0.00 0.00 0.00
0.00 0.00 0.00 0.00 0.00 0.00 0.00 0.00 0.00 0.00 0.00 0.00 0.00 0.00 0.00 0.00 0.00 0.00 0.00 0.00 0.00 0.00 0.00 0.00 0.00 0.00 0.00 0.00 0.00 0.00 0.00 0.00 0.00 0.00 0.00 0.00 0.00 0.00 0.00 0.00 0.00 0.00 0.00
0.00 0.00 0.00 0.00 0.00 0.00 0.00 0.00 0.00 0.00 0.00 0.00 0.00 0.00 0.00 0.00 0.00 0.00 0.00 0.00 0.00 0.00 0.00 0.00 0.00 0.00 0.00 0.00 0.00 0.00 0.00 0.00 0.00 0.00 0.00 0.00 0.00 0.00 0.00 0.00 0.00 0.00 0.00
0.00 0.00 0.00 0.00 0.00 0.00 0.00 0.00 0.00 0.00 0.00 0.00 0.00 0.00 0.00 0.00 0.00 0.00 0.00 0.00 0.00 0.00 0.00 0.00 0.00 0.00 0.00 0.00 0.00 0.00 0.00 0.00 0.00 0.00 0.00 0.00 0.00 0.00 0.00 0.00 0.00 0.00 0.00
0.00 0.00 0.00 0.00 0.00 0.00 0.00 0.00 0.00 0.00 0.00 0.00 0.00 0.00 0.00 0.00 0.00 0.00 0.00 0.00 0.00 0.00 0.00 0.00 0.00 0.00 0.00 0.00 0.00 0.00 0.00 0.00 0.00 0.00 0.00 0.00 0.00 0.00 0.00 0.00 0.00 0.00 0.00
0.00 0.00 0.00 0.00 0.00 0.00 0.00 0.00 0.00 0.00 0.00 0.00 0.00 0.00 0.00 0.00 0.00 0.00 0.00 0.00 0.00 0.00 0.00 0.00 0.00 0.00 0.00 0.00 0.00 0.00 0.00 0.00 0.00 0.00 0.00 0.00 0.00 0.00 0.00 0.00 0.00 0.00 0.00
0.00 0.00 0.00 0.00 0.00 0.00 0.00 0.00 0.00 0.00 0.00 0.00 0.00 0.00 0.00 0.00 0.00 0.00 0.00 0.00 0.00 0.00 0.00 0.00 0.00 0.00 0.00 0.00 0.00 0.00 0.00 0.00 0.00 0.00 0.00 0.00 0.00 0.00 0.00 0.00 0.00 0.00 0.00
0.00 0.00 0.00 0.00 0.00 0.00 0.00 0.00 0.00 0.00 0.00 0.00 0.00 0.00 0.00 0.00 0.00 0.00 0.00 0.00 0.00 0.00 0.00 0.00 0.00 0.00 0.00 0.00 0.00 0.00 0.00 0.00 0.00 0.00 0.00 0.00 0.00 0.00 0.00 0.00 0.00 0.00 0.00
MSLP
1012.13 1012.78 1013.51 1014.08 1014.68 1015.19 1015.54 1015.82 1016.21 1016.56 1016.69 1016.86 1017.24 1017.71 1018.03 1018.28 1018.53 1018.75 1019.12 1019.24 1019.26 1019.27 1019.22 1019.18 1019.20 1019.14 1019.06 1018.90 1018.76 1018.61 1018.46 1018.21 1017.67 1016.40 1015.94 1015.10 1014.38 1013.65 1012.96 1012.42 1011.92 1011.37 1010.57
1011.35 1012.29 1013.00 1013.67 1014.30 1014.79 1015.11 1015.56 1016.03 1016.35 1016.80 1017.18 1017.60 1018.05 1018.52 1018.85 1019.12 1019.19 1019.29 1019.35 1019.24 1019.31 1019.41 1019.43 1019.50 1019.42 1019.46 1019.29 1019.06 1018.94 1018.77 1018.41 1017.99 1016.80 1015.91 1015.09 1014.30 1013.68 1013.43 1012.67 1012.09 1011.53 1010.95
1010.98 1011.85 1012.76 1013.45 1013.94 1014.24 1014.72 1015.28 1015.86 1016.31 1016.92 1017.57 1018.12 1018.57 1019.09 1019.36 1019.40 1019.51 1019.61 1019.69 1019.59 1019.65 1019.58 1019.67 1019.80 1019.78 1019.72 1019.45 1019.22 1019.18 1018.72 1018.25 1017.58 1016.97 1015.96 1014.96 1014.58 1013.93 1013.51 1012.80 1012.31 1011.50 1010.79
1010.64 1011.52 1012.34 1012.87 1013.16 1013.71 1014.36 1015.02 1015.66 1016.34 1017.09 1017.86 1018.50 1018.95 1019.37 1019.70 1019.77 1019.90 1019.78 1019.79 1019.79 1019.86 1019.96 1020.06 1020.10 1020.04 1019.93 1019.59 1019.28 1019.01 1018.48 1018.08 1017.48 1016.96 1016.16 1015.36 1014.77 1014.08 1013.95 1013.05 1011.93 1011.18 1010.54
1010.31 1011.12 1011.65 1012.12 1012.80 1013.51 1014.17 1014.87 1015.69 1016.49 1017.32 1018.12 1018.73 1019.39 1019.70 1019.97 1020.04 1020.06 1019.99 1020.00 1020.06 1020.32 1020.34 1020.31 1020.24 1020.20 1020.01 1019.58 1019.13 1018.91 1018.59 1018.19 1017.66 1017.43 1016.56 1015.92 1015.22 1014.29 1014.03 1013.51 1012.82 1011.48 1010.11
1009.80 1010.62 1011.22 1011.90 1012.70 1013.42 1014.18 1014.97 1015.73 1016.72 1017.63 1018.41 1019.14 1019.56 1020.00 1020.24 1020.18 1020.13 1020.07 1020.33 1020.54 1020.53 1020.65 1020.62 1020.51 1020.27 1019.86 1019.43 1018.98 1018.58 1018.20 1017.90 1017.69 1017.69 1017.07 1016.65 1015.78 1014.90 1014.10 1013.66 1013.08 1012.27 1010.91
1009.39 1010.23 1010.98 1011.71 1012.56 1013.39 1014.23 1015.07 1015.97 1017.05 1017.87 1018.74 1019.41 1019.84 1020.17 1020.32 1020.33 1020.44 1020.44 1020.50 1020.67 1020.89 1020.86 1020.80 1020.70 1020.35 1019.85 1019.44 1018.86 1018.55 1018.21 1017.83 1017.42 1017.30 1017.23 1016.45 1015.82 1014.93 1014.48 1013.62 1012.91 1012.63 1011.79
1009.07 1009.95 1010.75 1011.58 1012.51 1013.39 1014.24 1015.26 1016.30 1017.20 1018.04 1018.85 1019.57 1019.94 1020.18 1020.55 1020.56 1020.52 1020.53 1020.67 1020.85 1020.81 1020.71 1020.76 1020.86 1020.41 1019.85 1019.49 1019.17 1018.74 1018.24 1017.51 1017.04 1016.77 1016.59 1016.11 1015.49 1014.54 1014.22 1013.57 1012.82 1012.22 1011.12
1008.65 1009.51 1010.35 1011.08 1012.19 1013.25 1014.27 1015.34 1016.33 1017.34 1018.29 1018.94 1019.51 1019.95 1020.36 1020.70 1020.70 1020.66 1020.74 1020.93 1021.01 1020.88 1020.72 1020.77 1020.86 1020.51 1020.04 1019.58 1019.23 1019.00 1018.56 1017.63 1016.79 1016.28 1015.72 1015.12 1014.42 1013.96 1013.54 1013.06 1012.48 1012.19 1011.16
1008.03 1008.93 1009.83 1010.71 1011.79 1013.01 1014.08 1015.20 1016.31 1017.21 1018.07 1018.93 1019.67 1020.05 1020.42 1020.84 1020.95 1020.85 1020.87 1021.01 1021.20 1021.37 1021.05 1020.78 1020.61 1020.38 1019.87 1019.45 1019.16 1019.15 1018.76 1018.10 1017.30 1016.43 1015.83 1014.97 1014.40 1013.76 1013.22 1013.13 1012.84 1012.56 1011.84
1007.85 1008.87 1009.84 1010.76 1011.78 1012.89 1014.11 1015.15 1016.24 1017.30 1018.08 1018.92 1019.62 1020.23 1020.54 1020.74 1020.98 1021.13 1021.31 1021.33 1021.38 1021.58 1021.52 1021.12 1020.61 1020.20 1019.86 1019.57 1019.25 1019.08 1018.96 1018.38 1017.65 1017.09 1016.45 1015.66 1014.86 1014.09 1013.33 1012.72 1012.57 1012.33 1011.56
1007.81 1008.87 1009.95 1010.96 1011.94 1013.08 1014.10 1015.43 1016.37 1017.14 1017.99 1018.95 1019.81 1020.52 1020.73 1020.91 1021.10 1021.16 1021.28 1021.37 1021.47 1021.61 1021.55 1021.18 1020.86 1020.40 1020.07 1019.77 1019.41 1019.13 1018.72 1018.40 1018.00 1017.32 1016.78 1016.04 1015.33 1014.56 1013.72 1012.83 1011.97 1011.29 1010.77
1008.42 1008.98 1010.10 1011.23 1012.30 1013.28 1014.34 1015.52 1016.54 1017.13 1017.91 1018.94 1019.68 1020.28 1020.66 1021.00 1021.10 1021.12 1021.21 1021.38 1021.41 1021.42 1021.40 1021.16 1020.84 1020.59 1020.30 1019.96 1019.59 1019.32 1018.93 1018.53 1018.33 1017.82 1017.35 1016.67 1015.94 1015.07 1013.98 1012.98 1011.68 1010.99 1009.93
1009.01 1009.70 1010.18 1011.42 1012.71 1013.79 1014.63 1015.39 1016.24 1017.00 1017.79 1018.49 1019.19 1019.87 1020.46 1020.96 1021.09 1021.19 1021.31 1021.24 1021.19 1021.26 1021.16 1020.95 1020.93 1020.89 1020.56 1020.34 1019.85 1019.45 1019.12 1018.85 1018.62 1018.30 1017.65 1016.75 1015.77 1014.92 1014.20 1013.23 1012.64 1011.50 1010.65
1009.47 1010.49 1010.71 1011.73 1013.04 1014.33 1015.50 1016.01 1016.36 1016.80 1017.00 1017.79 1018.58 1019.25 1020.15 1020.81 1020.87 1020.93 1021.16 1021.15 1021.13 1021.22 1021.20 1021.25 1021.26 1021.19 1021.14 1020.75 1020.28 1019.81 1019.36 1018.92 1018.76 1018.34 1017.82 1017.14 1016.26 1015.30 1014.46 1013.60 1012.65 1011.96 1011.29
1009.84 1011.02 1011.59 1012.14 1013.50 1014.64 1015.63 1016.69 1016.94 1016.93 1017.05 1017.49 1017.98 1018.67 1019.66 1019.94 1020.45 1020.83 1020.86 1020.77 1020.85 1021.08 1021.42 1021.71 1021.82 1021.64 1021.46 1021.16 1020.75 1020.29 1019.75 1019.39 1019.03 1018.50 1017.90 1017.32 1016.75 1016.12 1014.98 1013.97 1013.07 1012.43 1011.70
1009.45 1010.93 1011.95 1012.52 1013.59 1014.71 1015.70 1016.42 1017.36 1018.01 1017.87 1018.02 1018.35 1018.85 1019.40 1019.95 1020.38 1020.59 1020.52 1020.40 1020.74 1021.02 1021.56 1021.74 1021.76 1021.78 1021.53 1021.25 1020.90 1020.66 1020.30 1019.74 1019.16 1018.50 1018.17 1017.60 1016.85 1016.03 1015.45 1014.57 1013.71 1012.78 1011.87
1009.57 1010.46 1011.50 1012.45 1013.43 1014.55 1015.37 1016.03 1016.83 1017.62 1018.43 1018.91 1019.23 1019.40 1019.68 1020.04 1020.26 1020.30 1020.45 1020.71 1021.20 1021.22 1021.34 1021.46 1021.57 1021.57 1021.60 1021.37 1021.01 1020.74 1020.35 1019.77 1019.38 1018.89 1018.38 1017.98 1017.26 1016.63 1015.73 1014.96 1014.16 1013.40 1012.44
1009.61 1010.72 1011.56 1012.47 1013.48 1014.40 1015.24 1016.00 1016.80 1017.46 1018.06 1018.65 1019.30 1019.54 1019.70 1019.94 1020.18 1020.40 1020.56 1020.76 1021.20 1021.32 1021.32 1021.37 1021.36 1021.45 1021.40 1021.21 1021.09 1020.92 1020.50 1020.08 1019.62 1019.13 1018.55 1017.93 1017.44 1016.91 1016.11 1015.33 1014.50 1013.59 1012.80
1009.81 1010.44 1011.44 1012.51 1013.64 1014.60 1015.39 1016.18 1017.02 1017.69 1018.13 1018.49 1018.82 1019.10 1019.46 1019.77 1020.15 1020.41 1020.55 1020.82 1021.01 1021.28 1021.33 1021.37 1021.55 1021.68 1021.68 1021.50 1021.27 1021.12 1020.65 1020.22 1019.80 1019.37 1018.71 1018.19 1017.57 1017.00 1016.38 1015.56 1014.75 1014.07 1013.26
1009.90 1010.77 1011.38 1012.43 1013.41 1014.29 1015.10 1015.82 1016.47 1017.24 1017.77 1018.03 1018.23 1018.52 1018.81 1019.44 1019.84 1020.14 1020.49 1020.73 1020.94 1021.10 1021.14 1021.41 1021.63 1021.63 1021.52 1021.54 1021.43 1021.10 1020.87 1020.19 1019.82 1019.52 1019.05 1018.32 1017.77 1017.18 1016.41 1015.55 1014.84 1014.12 1013.47
1009.49 1010.43 1011.36 1012.14 1013.09 1013.90 1014.61 1015.32 1016.10 1016.81 1017.26 1017.59 1018.00 1018.39 1018.68 1019.14 1019.57 1019.93 1020.21 1020.51 1020.78 1020.71 1020.98 1021.23 1021.51 1021.65 1021.55 1021.13 1020.95 1020.70 1020.54 1020.52 1020.14 1019.81 1019.17 1018.44 1017.75 1017.12 1016.41 1015.72 1014.99 1014.38 1013.76
1009.21 1010.04 1010.97 1011.83 1012.60 1013.35 1014.09 1014.81 1015.58 1016.27 1016.76 1017.19 1017.62 1018.16 1018.70 1019.10 1019.33 1019.70 1020.03 1020.45 1020.63 1020.84 1020.96 1021.31 1021.51 1021.55 1021.55 1021.37 1021.07 1020.92 1020.69 1020.25 1019.90 1019.81 1019.40 1018.66 1017.83 1017.13 1016.53 1015.97 1015.35 1014.75 1014.19
1008.92 1009.72 1010.60 1011.42 1012.17 1012.85 1013.54 1014.23 1014.95 1015.58 1016.08 1016.53 1017.05 1017.71 1018.22 1018.63 1019.05 1019.34 1019.68 1020.08 1020.36 1020.69 1021.05 1021.18 1021.35 1021.52 1021.48 1021.13 1021.01 1020.71 1020.45 1020.19 1019.78 1019.45 1019.18 1018.53 1017.79 1017.16 1016.67 1016.23 1015.74 1015.24 1014.75
1008.75 1009.49 1010.21 1010.90 1011.70 1012.43 1013.11 1013.78 1014.52 1015.10 1015.56 1016.00 1016.70 1017.28 1017.83 1018.35 1018.80 1019.03 1019.59 1019.89 1020.41 1020.81 1021.04 1021.28 1021.34 1021.25 1021.27 1021.11 1020.85 1020.51 1020.34 1019.79 1019.40 1019.01 1018.62 1018.12 1017.70 1017.32 1016.97 1016.70 1016.24 1015.75 1015.28
1008.50 1009.06 1009.68 1010.41 1011.08 1011.74 1012.49 1013.20 1013.97 1014.56 1015.12 1015.67 1016.31 1016.93 1017.53 1018.18 1018.24 1018.55 1019.13 1019.76 1020.31 1020.72 1021.11 1021.19 1021.41 1021.32 1021.23 1021.11 1020.82 1020.45 1020.22 1019.66 1019.21 1018.88 1018.63 1018.13 1017.87 1017.72 1017.46 1017.20 1016.80 1016.39 1015.87
Thickness
5831 5826 5819 5814 5809 5804 5800 5796 5791 5786 5781 5776 5766 5760 5752 5745 5738 5730 5720 5711 5704 5698 5692 5686 5679 5673 5666 5657 5647 5636 5625 5615 5609 5610 5603 5600 5594 5587 5579 5571 5568 5572 5582
5837 5829 5822 5816 5810 5805 5801 5796 5791 5785 5779 5772 5763 5754 5745 5737 5730 5722 5715 5708 5701 5693 5685 5679 5672 5665 5654 5646 5636 5626 5614 5605 5599 5598 5596 5593 5591 5584 5577 5575 5574 5574 5580
5839 5830 5822 5816 5812 5808 5803 5798 5791 5783 5775 5766 5757 5748 5738 5730 5723 5716 5708 5701 5695 5687 5680 5672 5663 5655 5646 5637 5629 5618 5609 5601 5597 5591 5592 5591 5584 5581 5574 5577 5576 5577 5579
5839 5831 5823 5819 5817 5811 5805 5798 5790 5780 5770 5760 5751 5742 5733 5723 5716 5709 5703 5696 5689 5681 5672 5663 5654 5647 5639 5633 5625 5615 5608 5601 5595 5591 5588 5586 5580 5579 5572 5574 5575 5578 5578
5840 5833 5828 5824 5818 5812 5805 5797 5787 5776 5766 5755 5745 5734 5726 5717 5711 5703 5696 5689 5681 5671 5663 5655 5647 5640 5635 5630 5623 5613 5605 5597 5591 5583 5584 5581 5578 5579 5574 5571 5569 5575 5577
5843 5835 5830 5823 5816 5809 5801 5793 5783 5771 5760 5749 5737 5728 5719 5710 5705 5700 5692 5682 5672 5663 5654 5645 5638 5633 5629 5625 5621 5615 5609 5600 5590 5581 5579 5574 5576 5577 5578 5573 5569 5567 5571
5845 5837 5830 5823 5813 5805 5797 5788 5777 5765 5754 5741 5730 5721 5712 5705 5699 5693 5686 5676 5664 5654 5647 5639 5633 5628 5624 5619 5617 5612 5606 5601 5596 5587 5576 5576 5573 5575 5571 5571 5570 5563 5561
5843 5836 5828 5820 5810 5801 5793 5782 5770 5759 5748 5735 5723 5714 5706 5699 5693 5687 5680 5670 5658 5651 5644 5636 5626 5622 5619 5615 5610 5606 5602 5600 5595 5589 5581 5578 5574 5576 5571 5572 5571 5568 5568
5842 5834 5827 5819 5808 5798 5788 5776 5764 5752 5740 5729 5719 5709 5701 5693 5687 5681 5673 5663 5654 5646 5640 5631 5622 5615 5612 5610 5605 5601 5597 5596 5595 5591 5588 5585 5583 5579 5576 5573 5574 5567 5570
5842 5834 5826 5818 5807 5795 5784 5771 5759 5748 5735 5723 5712 5703 5696 5686 5680 5674 5666 5657 5648 5638 5633 5626 5619 5612 5609 5606 5601 5595 5589 5589 5586 5586 5584 5584 5582 5580 5575 5569 5565 5559 5559
5841 5830 5821 5812 5802 5790 5778 5765 5753 5740 5729 5717 5707 5696 5689 5682 5673 5665 5657 5648 5640 5631 5622 5616 5612 5608 5604 5600 5596 5591 5585 5582 5582 5578 5577 5576 5575 5574 5573 5569 5563 5558 5557
5834 5824 5814 5803 5794 5783 5771 5756 5745 5735 5723 5710 5698 5687 5681 5674 5666 5658 5650 5641 5633 5623 5615 5609 5603 5600 5596 5592 5589 5586 5583 5578 5574 5573 5570 5571 5569 5569 5568 5568 5566 5562 5558
5822 5816 5806 5794 5784 5774 5763 5750 5737 5728 5718 5705 5695 5684 5675 5666 5658 5652 5644 5635 5628 5618 5609 5604 5597 5591 5588 5586 5583 5579 5576 5572 5567 5564 5561 5560 5560 5561 5563 5562 5565 5562 5562
5808 5802 5799 5787 5774 5764 5755 5745 5734 5722 5711 5703 5693 5683 5670 5660 5652 5644 5637 5630 5622 5613 5605 5596 5589 5582 5581 5577 5575 5572 5568 5565 5561 5556 5555 5555 5556 5556 5556 5558 5555 5558 5558
5796 5787 5787 5779 5766 5750 5739 5733 5726 5716 5712 5700 5690 5679 5665 5652 5648 5642 5631 5623 5615 5605 5596 5587 5579 5572 5568 5566 5564 5563 5562 5560 5554 5551 5548 5547 5548 5550 5549 5551 5552 5550 5548
5784 5775 5772 5767 5754 5742 5732 5718 5712 5707 5703 5696 5687 5676 5662 5655 5647 5636 5627 5619 5609 5599 5587 5576 5567 5563 5560 5557 5556 5554 5553 5550 5547 5544 5543 5542 5540 5538 5541 5542 5543 5541 5540
5780 5768 5760 5756 5747 5734 5724 5716 5702 5692 5689 5683 5677 5668 5658 5649 5639 5630 5622 5613 5603 5592 5578 5568 5562 5557 5555 5553 5551 5547 5543 5541 5540 5540 5536 5534 5533 5534 5531 5532 5533 5534 5534
5773 5764 5757 5750 5740 5728 5719 5710 5701 5691 5679 5669 5662 5655 5648 5639 5630 5623 5614 5604 5592 5582 5572 5564 5559 5555 5550 5547 5544 5540 5537 5536 5533 5530 5528 5524 5523 5522 5524 5523 5523 5523 5525
5763 5755 5748 5741 5731 5722 5711 5702 5692 5682 5673 5662 5652 5646 5638 5630 5622 5612 5604 5595 5584 5574 5566 5560 5555 5549 5545 5541 5537 5532 5531 5528 5525 5521 5520 5518 5515 5512 5513 5514 5514 5516 5517
5754 5750 5742 5732 5721 5710 5701 5692 5681 5671 5662 5655 5647 5641 5631 5623 5614 5605 5596 5586 5577 5566 5559 5553 5546 5541 5536 5532 5529 5525 5522 5519 5516 5512 5511 5508 5506 5504 5503 5505 5506 5506 5507
5745 5738 5734 5724 5715 5705 5695 5687 5677 5666 5657 5651 5646 5635 5627 5618 5607 5597 5588 5579 5569 5560 5553 5546 5540 5536 5532 5526 5520 5517 5513 5513 5509 5504 5501 5500 5498 5496 5496 5498 5498 5499 5499
5739 5732 5725 5719 5708 5699 5690 5682 5672 5662 5654 5646 5636 5628 5619 5610 5600 5590 5581 5572 5562 5556 5548 5544 5537 5531 5526 5525 5521 5516 5510 5503 5499 5494 5492 5491 5490 5489 5489 5489 5491 5491 5491
5733 5726 5718 5710 5702 5693 5684 5675 5665 5657 5648 5640 5630 5620 5610 5601 5592 5581 5573 5564 5556 5548 5543 5537 5532 5527 5521 5516 5513 5507 5502 5500 5495 5488 5483 5482 5483 5482 5482 5481 5481 5482 5482
5725 5719 5710 5702 5694 5686 5679 5669 5659 5651 5643 5634 5626 5615 5605 5595 5585 5577 5569 5560 5551 5543 5538 5533 5526 5520 5515 5513 5508 5503 5499 5495 5490 5485 5480 5477 5477 5476 5475 5473 5473 5473 5473
5715 5708 5702 5694 5686 5678 5669 5661 5652 5646 5636 5628 5618 5608 5599 5588 5578 5571 5561 5553 5543 5536 5532 5527 5521 5516 5511 5507 5503 5499 5494 5492 5487 5483 5478 5476 5474 5470 5468 5465 5464 5464 5464
5704 5699 5692 5685 5678 5671 5662 5655 5646 5637 5628 5620 5611 5601 5590 5580 5575 5566 5557 5547 5538 5531 5526 5521 5514 5510 5505 5501 5498 5495 5490 5488 5484 5479 5474 5471 5468 5464 5461 5457 5456 5454 5453